When you browse on this site, cookies collect data to enhance your experience and personalize the content and advertising you see.
Visit our Privacy Policy to learn more. By continuing to use the site, you agree to this use of cookies and data.
  • Em Portugal
  • Lista de países
  • Para 7 dias
  • Temperatura da água
  • Mapas de satélite
  • Mapa do tempo
  • Widgets de tempo
  • user-avatar
    Iniciar Sessão

    Previsão horária em Pontypridd

    Hoje, 20 Julho, Sábado

    Tempo Temperatura Precipitação Vento Pressão Humidade
    00:00 +15°C° 0 mm 4 m/s 743 mmHg 96%
    01:00 +15°C° 0.4 mm 4 m/s 743 mmHg 96%
    02:00 +15°C° 0.4 mm 5 m/s 742 mmHg 96%
    03:00 +15°C° 0.4 mm 5 m/s 742 mmHg 96%
    04:00 +15°C° 0.1 mm 5 m/s 742 mmHg 95%
    05:00 +15°C° 0.1 mm 5 m/s 742 mmHg 94%
    06:00 +14°C° 0 mm 5 m/s 742 mmHg 94%
    07:00 +15°C° 0 mm 6 m/s 743 mmHg 93%
    08:00 +15°C° 0 mm 7 m/s 744 mmHg 92%
    09:00 +15°C° 0 mm 8 m/s 744 mmHg 91%
    10:00 +16°C° 0.1 mm 7 m/s 745 mmHg 89%
    11:00 +16°C° 0.1 mm 7 m/s 745 mmHg 88%
    12:00 +16°C° 0.1 mm 7 m/s 746 mmHg 86%
    13:00 +16°C° 0 mm 7 m/s 747 mmHg 85%
    14:00 +16°C° 0 mm 7 m/s 747 mmHg 84%
    15:00 +17°C° 0 mm 6 m/s 748 mmHg 83%
    16:00 +16°C° 0 mm 6 m/s 748 mmHg 82%
    17:00 +16°C° 0 mm 6 m/s 748 mmHg 82%
    18:00 +16°C° 0 mm 6 m/s 749 mmHg 81%
    19:00 +15°C° 0 mm 5 m/s 749 mmHg 85%
    20:00 +14°C° 0 mm 4 m/s 750 mmHg 90%
    21:00 +13°C° 0 mm 3 m/s 751 mmHg 94%
    22:00 +12°C° 0 mm 3 m/s 751 mmHg 95%
    23:00 +12°C° 0 mm 3 m/s 752 mmHg 96%

    Amanhã, 21 Julho, Domingo

    Tempo Temperatura Precipitação Vento Pressão Humidade
    00:00 +13°C° 0 mm 2 m/s 752 mmHg 97%
    01:00 +13°C° 0 mm 2 m/s 752 mmHg 97%
    02:00 +14°C° 0 mm 2 m/s 752 mmHg 97%
    03:00 +14°C° 0 mm 2 m/s 752 mmHg 97%
    04:00 +13°C° 0 mm 3 m/s 753 mmHg 97%
    05:00 +14°C° 0 mm 3 m/s 753 mmHg 96%
    06:00 +14°C° 0 mm 3 m/s 753 mmHg 95%
    07:00 +16°C° 0 mm 3 m/s 753 mmHg 91%
    08:00 +17°C° 0 mm 4 m/s 754 mmHg 86%
    09:00 +18°C° 0 mm 4 m/s 754 mmHg 82%
    10:00 +19°C° 0 mm 4 m/s 754 mmHg 79%
    11:00 +20°C° 0 mm 5 m/s 754 mmHg 76%
    12:00 +20°C° 0 mm 5 m/s 755 mmHg 73%
    13:00 +20°C° 0 mm 5 m/s 755 mmHg 73%
    14:00 +21°C° 0 mm 5 m/s 755 mmHg 74%
    15:00 +21°C° 0 mm 5 m/s 755 mmHg 74%
    16:00 +20°C° 0 mm 5 m/s 755 mmHg 77%
    17:00 +20°C° 0 mm 5 m/s 754 mmHg 79%
    18:00 +19°C° 0 mm 5 m/s 754 mmHg 82%
    19:00 +17°C° 0 mm 5 m/s 754 mmHg 86%
    20:00 +17°C° 0 mm 4 m/s 754 mmHg 90%
    21:00 +15°C° 0 mm 4 m/s 755 mmHg 94%
    22:00 +15°C° 0 mm 4 m/s 755 mmHg 95%
    23:00 +15°C° 0 mm 4 m/s 755 mmHg 96%

    Depois de amanhã, 22 Julho, Segunda-feira

    Tempo Temperatura Precipitação Vento Pressão Humidade
    00:00 +15°C° 0 mm 4 m/s 755 mmHg 96%
    01:00 +15°C° 0 mm 4 m/s 754 mmHg 96%
    02:00 +15°C° 0 mm 4 m/s 754 mmHg 96%
    03:00 +15°C° 0 mm 4 m/s 754 mmHg 95%
    04:00 +15°C° 0 mm 4 m/s 754 mmHg 94%
    05:00 +17°C° 0 mm 4 m/s 754 mmHg 94%
    06:00 +17°C° 0 mm 4 m/s 754 mmHg 93%
    07:00 +18°C° 0 mm 4 m/s 754 mmHg 91%
    08:00 +19°C° 0 mm 5 m/s 755 mmHg 89%
    09:00 +20°C° 0 mm 5 m/s 755 mmHg 86%
    10:00 +21°C° 0 mm 5 m/s 755 mmHg 84%
    11:00 +22°C° 0 mm 5 m/s 755 mmHg 81%
    12:00 +22°C° 0 mm 5 m/s 756 mmHg 79%
    13:00 +23°C° 0 mm 5 m/s 755 mmHg 78%
    14:00 +23°C° 0 mm 5 m/s 755 mmHg 77%
    15:00 +23°C° 0 mm 5 m/s 755 mmHg 76%
    16:00 +23°C° 0 mm 4 m/s 755 mmHg 78%
    17:00 +22°C° 0 mm 4 m/s 755 mmHg 80%
    18:00 +21°C° 0 mm 4 m/s 755 mmHg 82%
    19:00 +20°C° 0 mm 3 m/s 755 mmHg 86%
    20:00 +18°C° 0 mm 2 m/s 755 mmHg 89%
    21:00 +18°C° 0 mm 1 m/s 755 mmHg 93%
    22:00 +18°C° 0 mm 1 m/s 755 mmHg 93%
    23:00 +15°C° 0 mm 0 m/s 755 mmHg 93%

    23 Julho, Terça-feira

    Tempo Temperatura Precipitação Vento Pressão Humidade
    00:00 +15°C° 0 mm 0 m/s 755 mmHg 93%
    01:00 +15°C° 0 mm 0 m/s 754 mmHg 93%
    02:00 +16°C° 0 mm 1 m/s 754 mmHg 93%
    03:00 +16°C° 0 mm 1 m/s 754 mmHg 94%
    04:00 +16°C° 0 mm 1 m/s 754 mmHg 94%
    05:00 +18°C° 0 mm 1 m/s 753 mmHg 94%
    06:00 +19°C° 0 mm 1 m/s 753 mmHg 94%
    07:00 +19°C° 0 mm 2 m/s 753 mmHg 87%
    08:00 +21°C° 0 mm 2 m/s 753 mmHg 80%
    09:00 +22°C° 0 mm 3 m/s 753 mmHg 72%
    10:00 +24°C° 0 mm 3 m/s 752 mmHg 71%
    11:00 +25°C° 0 mm 4 m/s 752 mmHg 69%
    12:00 +27°C° 0 mm 4 m/s 752 mmHg 68%
    13:00 +27°C° 0 mm 5 m/s 751 mmHg 66%
    14:00 +28°C° 0 mm 5 m/s 751 mmHg 65%
    15:00 +29°C° 0 mm 5 m/s 750 mmHg 63%
    16:00 +28°C° 0 mm 5 m/s 750 mmHg 67%
    17:00 +28°C° 0 mm 4 m/s 750 mmHg 70%
    18:00 +27°C° 0 mm 3 m/s 749 mmHg 74%
    19:00 +25°C° 0.2 mm 3 m/s 749 mmHg 79%
    20:00 +23°C° 0.2 mm 2 m/s 749 mmHg 84%
    21:00 +22°C° 0.2 mm 1 m/s 749 mmHg 89%
    22:00 +21°C° 1.3 mm 1 m/s 749 mmHg 90%
    23:00 +21°C° 1.3 mm 1 m/s 749 mmHg 92%

    24 Julho, Quarta-feira

    Tempo Temperatura Precipitação Vento Pressão Humidade
    00:00 +20°C° 1.3 mm 1 m/s 749 mmHg 94%
    01:00 +20°C° 0.5 mm 1 m/s 748 mmHg 94%
    02:00 +20°C° 0.5 mm 1 m/s 748 mmHg 94%
    03:00 +19°C° 0.5 mm 1 m/s 748 mmHg 95%
    04:00 +19°C° 0 mm 1 m/s 748 mmHg 95%
    05:00 +20°C° 0 mm 1 m/s 748 mmHg 94%
    06:00 +19°C° 0 mm 2 m/s 748 mmHg 94%
    07:00 +20°C° 0 mm 2 m/s 748 mmHg 89%
    08:00 +21°C° 0 mm 2 m/s 749 mmHg 84%
    09:00 +23°C° 0 mm 2 m/s 749 mmHg 79%
    10:00 +22°C° 0 mm 3 m/s 749 mmHg 74%
    11:00 +24°C° 0 mm 3 m/s 749 mmHg 70%
    12:00 +24°C° 0 mm 3 m/s 749 mmHg 65%
    13:00 +25°C° 0 mm 3 m/s 749 mmHg 65%
    14:00 +25°C° 0 mm 2 m/s 749 mmHg 64%
    15:00 +26°C° 0 mm 2 m/s 749 mmHg 64%
    16:00 +25°C° 0 mm 1 m/s 748 mmHg 68%
    17:00 +25°C° 0 mm 1 m/s 748 mmHg 72%
    18:00 +25°C° 0 mm 1 m/s 748 mmHg 76%
    19:00 +23°C° 0 mm 1 m/s 748 mmHg 79%
    20:00 +22°C° 0 mm 1 m/s 748 mmHg 82%
    21:00 +20°C° 0 mm 1 m/s 748 mmHg 85%
    22:00 +20°C° 0 mm 1 m/s 747 mmHg 85%
    23:00 +19°C° 0 mm 2 m/s 747 mmHg 84%

    25 Julho, Quinta-feira

    Tempo Temperatura Precipitação Vento Pressão Humidade
    00:00 +18°C° 0 mm 2 m/s 746 mmHg 83%
    01:00 +18°C° 0 mm 2 m/s 746 mmHg 84%
    02:00 +18°C° 0 mm 2 m/s 745 mmHg 85%
    03:00 +18°C° 0 mm 2 m/s 745 mmHg 85%
    04:00 +18°C° 0 mm 2 m/s 744 mmHg 85%
    05:00 +18°C° 0 mm 2 m/s 744 mmHg 84%
    06:00 +19°C° 0 mm 2 m/s 744 mmHg 83%
    07:00 +19°C° 0.4 mm 2 m/s 744 mmHg 86%
    08:00 +20°C° 0.4 mm 2 m/s 744 mmHg 88%
    09:00 +20°C° 0.4 mm 3 m/s 744 mmHg 90%
    10:00 +20°C° 0.4 mm 3 m/s 744 mmHg 90%
    11:00 +21°C° 0.4 mm 3 m/s 744 mmHg 91%
    12:00 +21°C° 0.4 mm 3 m/s 745 mmHg 91%
    13:00 +21°C° 0.2 mm 4 m/s 745 mmHg 89%
    14:00 +21°C° 0.2 mm 5 m/s 745 mmHg 88%
    15:00 +21°C° 0.2 mm 6 m/s 745 mmHg 86%
    16:00 +20°C° 0 mm 6 m/s 745 mmHg 83%
    17:00 +20°C° 0 mm 6 m/s 745 mmHg 81%
    18:00 +19°C° 0 mm 6 m/s 745 mmHg 78%
    19:00 +17°C° 0 mm 6 m/s 746 mmHg 80%
    20:00 +16°C° 0 mm 5 m/s 746 mmHg 83%
    21:00 +15°C° 0 mm 5 m/s 746 mmHg 85%
    22:00 +15°C° 0 mm 5 m/s 746 mmHg 88%
    23:00 +14°C° 0 mm 5 m/s 746 mmHg 91%
    Mostrar mais